FW7336 Weather Reports


Display with metric or nautical units.
time (UTC)temp
F
wind
direction
speed
MPH
gust
MPH
rain 1hr
in
rain 24hr
in
rain mn
in
humidity
%
barometer
mb
20260508060056 50 139 3.0 4.0 0.00 0.00 0.00 88 1017.4
20260508054623 49 0 0.0 1.0 0.00 0.00 0.00 88 1017.3
20260508053053 49 261 0.0 1.0 0.00 0.00 0.00 88 1017.1
20260508051554 49 131 2.0 3.0 0.00 0.00 0.00 88 1017.1
20260508050055 49 0 0.0 1.0 0.00 0.00 0.00 88 1017.1
20260508044601 49 141 0.0 2.0 0.00 0.00 0.00 88 1017.0
20260508043059 49 140 0.0 2.0 0.00 0.00 0.00 88 1017.0
20260508041601 49 138 0.0 2.0 0.00 0.00 0.00 88 1016.9
20260508040100 50 137 2.0 3.0 0.00 0.00 0.00 87 1017.0
20260508034602 50 148 1.0 3.0 0.00 0.00 0.00 87 1016.9
20260508033057 50 158 3.0 4.0 0.00 0.00 0.00 87 1017.0
20260508031601 49 228 0.0 4.0 0.00 0.00 0.00 87 1017.0
20260508030112 49 168 2.0 3.0 0.00 0.00 0.00 86 1017.0
20260508024605 50 145 3.0 3.0 0.00 0.00 0.00 86 1017.0
20260508023055 50 259 1.0 1.0 0.00 0.00 0.00 85 1017.0
20260508021615 50 0 0.0 3.0 0.00 0.00 0.00 85 1017.0
20260508020057 50 247 1.0 2.0 0.00 0.00 0.00 85 1016.9
20260508014557 50 0 0.0 2.0 0.00 0.00 0.00 84 1016.7
20260508013106 50 0 0.0 0.0 0.00 0.00 0.00 84 1016.8
20260508011600 50 0 0.0 1.0 0.00 0.00 0.00 84 1016.8
20260508010058 50 233 2.0 7.0 0.00 0.00 0.00 84 1016.7
20260508004600 50 154 4.0 5.0 0.00 0.00 0.00 83 1016.7
20260508003107 50 249 1.0 6.0 0.00 0.00 0.00 82 1017.0
20260508001558 51 146 2.0 7.0 0.00 0.00 0.00 82 1017.0
20260508000055 51 228 2.0 4.0 0.00 0.00 0.00 81 1017.1
20260507234559 51 190 7.0 11.0 0.00 0.00 0.00 80 1017.2
20260507233054 51 157 6.0 9.0 0.00 0.00 0.00 79 1017.2
20260507231600 52 152 8.0 13.0 0.00 0.00 0.00 79 1017.2
20260507230101 52 138 9.0 13.0 0.00 0.00 0.00 78 1017.0
20260507224604 52 146 9.0 13.0 0.00 0.00 0.00 78 1017.2
20260507223053 52 144 8.0 12.0 0.00 0.00 0.00 78 1017.1
20260507221554 53 138 8.0 12.0 0.00 0.00 0.00 77 1017.1
20260507220053 53 143 8.0 12.0 0.00 0.00 0.00 76 1017.1
20260507214553 53 133 7.0 12.0 0.00 0.00 0.00 75 1017.2
20260507213056 53 131 6.0 9.0 0.00 0.00 0.00 75 1017.2
20260507211553 53 118 6.0 8.0 0.00 0.00 0.00 74 1017.0
20260507210119 53 106 6.0 7.0 0.00 0.00 0.00 74 1016.8
20260507204600 53 112 6.0 7.0 0.00 0.00 0.00 73 1016.6
20260507203102 54 115 4.0 7.0 0.00 0.00 0.00 72 1016.6
20260507201600 54 105 4.0 5.0 0.00 0.00 0.00 71 1016.5
20260507200105 54 117 4.0 5.0 0.00 0.00 0.00 71 1016.4
20260507194553 54 115 4.0 6.0 0.00 0.00 0.00 70 1016.1
20260507193123 55 108 4.0 7.0 0.00 0.00 0.00 69 1016.1
20260507191559 55 113 5.0 9.0 0.00 0.00 0.00 68 1016.1
20260507190054 55 126 7.0 9.0 0.00 0.00 0.00 67 1016.0
20260507184554 56 110 6.0 11.0 0.00 0.00 0.00 65 1016.0
20260507183102 56 101 7.0 12.0 0.00 0.00 0.00 64 1015.9
20260507181554 56 119 7.0 14.0 0.00 0.00 0.00 63 1015.8
20260507180058 57 110 10.0 14.0 0.00 0.00 0.00 61 1015.7
20260507174554 57 122 9.0 12.0 0.00 0.00 0.00 58 1015.7
20260507173130 57 122 6.0 9.0 0.00 0.00 0.00 61 1015.7
20260507171556 57 139 10.0 15.0 0.00 0.00 0.00 59 1015.6
20260507170055 58 122 9.0 13.0 0.00 0.00 0.00 57 1015.8
20260507164604 58 145 9.0 14.0 0.00 0.00 0.00 57 1015.8
20260507163054 57 112 8.0 11.0 0.00 0.00 0.00 56 1015.7
20260507161607 57 90 9.0 12.0 0.00 0.00 0.00 58 1015.7
20260507160115 57 115 6.0 10.0 0.00 0.00 0.00 60 1015.8
20260507154553 57 82 6.0 9.0 0.00 0.00 0.00 61 1016.0
20260507153052 57 152 5.0 8.0 0.00 0.00 0.00 59 1016.1
20260507151559 57 156 8.0 12.0 0.00 0.00 0.00 57 1016.3
20260507150100 57 151 5.0 12.0 0.00 0.00 0.00 60 1016.3
20260507144605 57 128 6.0 10.0 0.00 0.00 0.00 59 1016.3
20260507143100 57 150 7.0 11.0 0.00 0.00 0.00 58 1016.4
20260507141618 56 94 4.0 9.0 0.00 0.00 0.00 61 1016.5
20260507134601 57 129 5.0 10.0 0.00 0.00 0.00 61 1016.8
20260507133054 56 120 6.0 10.0 0.00 0.00 0.00 61 1016.7
20260507131556 56 124 6.0 8.0 0.00 0.00 0.00 62 1016.8
20260507130058 56 129 6.0 9.0 0.00 0.00 0.00 62 1016.9
20260507124552 56 105 5.0 10.0 0.00 0.00 0.00 63 1016.9
20260507123054 55 129 5.0 10.0 0.00 0.00 0.00 63 1016.9
20260507121558 55 79 3.0 8.0 0.00 0.00 0.00 65 1017.0
20260507120144 55 153 5.0 11.0 0.00 0.00 0.00 64 1017.1
20260507114602 56 145 3.0 11.0 0.00 0.00 0.00 66 1017.0
20260507113057 55 188 4.0 12.0 0.00 0.00 0.00 68 1017.1
20260507111600 54 126 5.0 13.0 0.00 0.00 0.00 70 1017.2
20260507110111 54 167 6.0 9.0 0.00 0.00 0.00 69 1017.2
20260507104554 54 181 4.0 13.0 0.00 0.00 0.00 71 1017.4
20260507103052 53 229 3.0 11.0 0.00 0.00 0.00 71 1017.6
20260507101625 53 155 3.0 8.0 0.00 0.00 0.00 74 1017.6
20260507100056 53 205 5.0 10.0 0.00 0.00 0.00 74 1017.6
20260507094552 52 136 3.0 7.0 0.00 0.00 0.00 76 1017.6
20260507093057 52 226 5.0 12.0 0.00 0.00 0.00 76 1017.7
20260507091549 51 160 6.0 13.0 0.00 0.00 0.00 78 1017.5
20260507090057 50 166 6.0 10.0 0.00 0.00 0.00 79 1017.5
20260507084557 50 153 8.0 12.0 0.00 0.00 0.00 79 1017.6
20260507083055 50 143 4.0 6.0 0.00 0.00 0.00 80 1017.6
20260507081553 50 296 1.0 3.0 0.00 0.00 0.00 82 1017.6
20260507080053 50 41 0.0 1.0 0.00 0.00 0.00 88 1017.6
20260507074601 48 0 0.0 2.0 0.00 0.00 0.00 90 1017.6
20260507073054 47 0 0.0 1.0 0.00 0.00 0.00 92 1017.5
20260507071554 46 331 0.0 1.0 0.00 0.00 0.00 93 1017.3
20260507070057 44 331 0.0 3.0 0.00 0.00 0.00 92 1017.3
20260507064621 44 313 1.0 4.0 0.00 0.00 0.00 90 1017.4
20260507063058 43 0 0.0 1.0 0.00 0.00 0.00 94 1017.3
20260507061552 41 356 0.0 2.0 0.00 0.00 0.00 94 1017.2